,,PA_Meas_PMT16A,,PR_Meas_QMR101_102,,RH_Meas_QMH101,,SR_Meas_QMS101,,TA_Meas_QMH101,,GenWind,,GenWind,
time,status,PA,status,PR,status,RH,status,SR,status,TA,status,DirAvg,status,SpdAvg,
2011-08-30, 00:00:04,VALID,918.123,VALID,0,VALID,92.0756,VALID,0,VALID,19.3503,VALID,113,VALID,1.34258,
2011-08-30, 00:01:04,VALID,918.184,VALID,0,VALID,91.7631,VALID,0,VALID,19.4103,VALID,159,VALID,1.50508,
2011-08-30, 00:02:04,VALID,918.153,VALID,0,VALID,91.5115,VALID,0,VALID,19.4298,VALID,105,VALID,0.497656,
2011-08-30, 00:03:04,VALID,918.134,VALID,0,VALID,91.0541,VALID,0,VALID,19.4688,VALID,170,VALID,1.17695,
2011-08-30, 00:04:04,VALID,918.089,VALID,0,VALID,90.8711,VALID,0,VALID,19.5078,VALID,149,VALID,0.585938,
2011-08-30, 00:05:04,VALID,918.079,VALID,0,VALID,90.5128,VALID,0,VALID,19.5273,VALID,165,VALID,1.38008,
2011-08-30, 00:06:04,VALID,918.04,VALID,0,VALID,90.2841,VALID,0,VALID,19.5468,VALID,140,VALID,0.628516,
2011-08-30, 00:07:04,VALID,918.031,VALID,0,VALID,90.0935,VALID,0,VALID,19.5663,VALID,167,VALID,1.04531,
2011-08-30, 00:08:04,VALID,918.014,VALID,0,VALID,89.8115,VALID,0,VALID,19.5858,VALID,171,VALID,0.405078,
2011-08-30, 00:09:04,VALID,918,VALID,0,VALID,89.6742,VALID,0,VALID,19.6053,VALID,171,VALID,0.464844,
2011-08-30, 00:10:04,VALID,917.961,VALID,0,VALID,89.5294,VALID,0,VALID,19.6248,VALID,171,VALID,0.236328,
2011-08-30, 00:11:04,VALID,917.985,VALID,0,VALID,89.6437,VALID,0,VALID,19.6653,VALID,171,VALID,0.28125,
2011-08-30, 00:12:04,VALID,917.987,VALID,0,VALID,89.4608,VALID,0,VALID,19.6443,VALID,171,VALID,0.449219,
2011-08-30, 00:13:04,VALID,917.972,VALID,0,VALID,89.4532,VALID,0,VALID,19.6233,VALID,171,VALID,0.478516,
2011-08-30, 00:14:04,VALID,917.964,VALID,0,VALID,89.5142,VALID,0,VALID,19.6248,VALID,172,VALID,0.119531,
2011-08-30, 00:15:04,VALID,917.951,VALID,0,VALID,90.0249,VALID,0,VALID,19.6248,VALID,172,VALID,0.182422,
2011-08-30, 00:16:04,VALID,917.934,VALID,0,VALID,89.9487,VALID,0,VALID,19.6053,VALID,171,VALID,0.133594,
2011-08-30, 00:17:04,VALID,917.931,VALID,0,VALID,89.4989,VALID,0,VALID,19.5663,VALID,171,VALID,0.700391,
2011-08-30, 00:18:04,VALID,917.9,VALID,0,VALID,89.2778,VALID,0,VALID,19.5858,VALID,171,VALID,0.567578,
2011-08-30, 00:19:04,VALID,917.887,VALID,0,VALID,89.3464,VALID,0,VALID,19.5663,VALID,171,VALID,0.882813,
2011-08-30, 00:20:04,VALID,917.929,VALID,0,VALID,89.6285,VALID,0,VALID,19.5273,VALID,171,VALID,0.715625,
2011-08-30, 00:21:04,VALID,917.879,VALID,0,VALID,89.8877,VALID,0,VALID,19.5078,VALID,171,VALID,0.786719,
2011-08-30, 00:22:04,VALID,917.883,VALID,0,VALID,89.9792,VALID,0,VALID,19.4298,VALID,172,VALID,0.953906,
2011-08-30, 00:23:04,VALID,917.892,VALID,0,VALID,90.1012,VALID,0,VALID,19.4103,VALID,172,VALID,0.749609,
2011-08-30, 00:24:04,VALID,917.896,VALID,0,VALID,89.4303,VALID,0,VALID,19.3908,VALID,98,VALID,1.10938,
2011-08-30, 00:25:04,VALID,917.895,VALID,0,VALID,88.8585,VALID,0,VALID,19.4493,VALID,119,VALID,0.510547,
2011-08-30, 00:26:04,VALID,917.9,VALID,0,VALID,88.241,VALID,0,VALID,19.5288,VALID,79,VALID,0.841016,
2011-08-30, 00:27:04,VALID,917.887,VALID,0,VALID,87.5702,VALID,0,VALID,19.5468,VALID,79,VALID,0.512109,
2011-08-30, 00:28:04,VALID,917.893,VALID,0,VALID,87.128,VALID,0,VALID,19.6263,VALID,79,VALID,0.532422,
2011-08-30, 00:29:04,VALID,917.875,VALID,0,VALID,86.9069,VALID,0,VALID,19.6443,VALID,79,VALID,0.205469,
2011-08-30, 00:30:04,VALID,917.871,VALID,0,VALID,86.4724,VALID,0,VALID,19.7028,VALID,235,VALID,0.649219,
2011-08-30, 00:31:04,VALID,917.871,VALID,0,VALID,86.48,VALID,0,VALID,19.7808,VALID,236,VALID,0.287109,
2011-08-30, 00:32:04,VALID,917.876,VALID,0,VALID,86.1294,VALID,0,VALID,19.8198,VALID,236,VALID,0.349609,
2011-08-30, 00:33:04,VALID,917.894,VALID,0,VALID,86.0912,VALID,0,VALID,19.8588,VALID,236,VALID,0.127734,
2011-08-30, 00:34:04,VALID,917.884,VALID,0,VALID,85.7787,VALID,0,VALID,19.8783,VALID,236,VALID,0.195703,
2011-08-30, 00:35:04,VALID,917.885,VALID,0,VALID,86.0684,VALID,0,VALID,19.9173,VALID,236,VALID,0,
2011-08-30, 00:36:04,VALID,917.872,VALID,0,VALID,85.7558,VALID,0,VALID,19.9368,VALID,236,VALID,0.354297,
2011-08-30, 00:37:04,VALID,917.904,VALID,0,VALID,85.6262,VALID,0,VALID,19.9563,VALID,236,VALID,0.439844,
2011-08-30, 00:38:04,VALID,917.907,VALID,0,VALID,85.9845,VALID,0.107441,VALID,19.9953,VALID,236,VALID,0.615234,
2011-08-30, 00:39:04,VALID,917.907,VALID,0,VALID,86.1903,VALID,0,VALID,19.9563,VALID,236,VALID,0.510547,
2011-08-30, 00:40:04,VALID,917.874,VALID,0,VALID,86.2971,VALID,0,VALID,19.9773,VALID,236,VALID,0.253125,
2011-08-30, 00:41:04,VALID,917.85,VALID,0,VALID,86.1217,VALID,0,VALID,19.9368,VALID,236,VALID,0.729688,
2011-08-30, 00:42:04,VALID,917.889,VALID,0,VALID,86.7468,VALID,0,VALID,19.9173,VALID,236,VALID,0.43125,
2011-08-30, 00:43:04,VALID,917.823,VALID,0,VALID,85.9007,VALID,0,VALID,19.8978,VALID,166,VALID,1.22461,
2011-08-30, 00:44:04,VALID,917.826,VALID,0,VALID,85.7863,VALID,0,VALID,19.8783,VALID,155,VALID,0.688281,
2011-08-30, 00:45:04,VALID,917.825,VALID,0,VALID,85.8854,VALID,0,VALID,19.8978,VALID,155,VALID,0.726172,
2011-08-30, 00:46:04,VALID,917.824,VALID,0,VALID,85.3975,VALID,0,VALID,19.8978,VALID,156,VALID,1.00117,
2011-08-30, 00:47:04,VALID,917.824,VALID,0,VALID,85.2679,VALID,0,VALID,19.9173,VALID,135,VALID,1.26055,
2011-08-30, 00:48:04,VALID,917.801,VALID,0,VALID,84.6504,VALID,0,VALID,19.9563,VALID,151,VALID,1.58516,
2011-08-30, 00:49:04,VALID,917.792,VALID,0,VALID,84.4598,VALID,0,VALID,20.0343,VALID,140,VALID,0.458203,
2011-08-30, 00:50:04,VALID,917.752,VALID,0,VALID,83.4993,VALID,0,VALID,20.1318,VALID,153,VALID,0.958203,
2011-08-30, 00:51:04,VALID,917.751,VALID,0,VALID,83.1181,VALID,0,VALID,20.1903,VALID,146,VALID,1.41484,
2011-08-30, 00:52:04,VALID,917.728,VALID,0,VALID,82.7293,VALID,0,VALID,20.2879,VALID,147,VALID,1.16328,
2011-08-30, 00:53:04,VALID,917.738,VALID,0,VALID,82.7674,VALID,0,VALID,20.3269,VALID,117,VALID,0.840234,
2011-08-30, 00:54:04,VALID,917.743,VALID,0,VALID,82.8284,VALID,0,VALID,20.3659,VALID,148,VALID,0.873438,
2011-08-30, 00:55:04,VALID,917.716,VALID,0,VALID,82.6226,VALID,0,VALID,20.4244,VALID,143,VALID,1.53633,
2011-08-30, 00:56:04,VALID,917.697,VALID,0,VALID,82.8589,VALID,0,VALID,20.465,VALID,131,VALID,1.19453,
2011-08-30, 00:57:04,VALID,917.721,VALID,0,VALID,82.836,VALID,0,VALID,20.4439,VALID,166,VALID,1.04727,
2011-08-30, 00:58:04,VALID,917.69,VALID,0,VALID,82.9275,VALID,0,VALID,20.4439,VALID,187,VALID,0.312891,
2011-08-30, 00:59:04,VALID,917.696,VALID,0,VALID,82.9275,VALID,0,VALID,20.465,VALID,181,VALID,0.882031,
2011-08-30, 01:00:04,VALID,917.707,VALID,0,VALID,83.2096,VALID,0,VALID,20.4439,VALID,180,VALID,0.386328,
2011-08-30, 01:01:04,VALID,917.712,VALID,0,VALID,82.8055,VALID,0,VALID,20.4439,VALID,170,VALID,1.26445,
2011-08-30, 01:02:04,VALID,917.684,VALID,0,VALID,82.7674,VALID,0,VALID,20.4244,VALID,216,VALID,1.54727,
2011-08-30, 01:03:04,VALID,917.702,VALID,0,VALID,83.019,VALID,0,VALID,20.4244,VALID,200,VALID,0.734375,
2011-08-30, 01:04:04,VALID,917.7,VALID,0,VALID,83.202,VALID,0,VALID,20.4244,VALID,246,VALID,0.865625,
2011-08-30, 01:05:04,VALID,917.709,VALID,0,VALID,83.6365,VALID,0,VALID,20.3269,VALID,246,VALID,0.894922,
2011-08-30, 01:06:04,VALID,917.714,VALID,0,VALID,84.193,VALID,0,VALID,20.2098,VALID,246,VALID,0.891016,
2011-08-30, 01:07:04,VALID,917.685,VALID,0,VALID,84.9553,VALID,0,VALID,20.1318,VALID,246,VALID,0.780469,
2011-08-30, 01:08:04,VALID,917.736,VALID,0,VALID,85.1764,VALID,0,VALID,20.0538,VALID,244,VALID,0.746875,
2011-08-30, 01:09:04,VALID,917.705,VALID,0,VALID,85.428,VALID,0,VALID,20.0343,VALID,244,VALID,0.711719,
2011-08-30, 01:10:04,VALID,917.717,VALID,0,VALID,85.428,VALID,0,VALID,20.0343,VALID,244,VALID,0.549219,
2011-08-30, 01:11:04,VALID,917.723,VALID,0,VALID,84.902,VALID,0,VALID,20.0358,VALID,216,VALID,0.893359,
2011-08-30, 01:12:04,VALID,917.7,VALID,0,VALID,84.4751,VALID,0,VALID,20.0944,VALID,223,VALID,0.800391,
2011-08-30, 01:13:04,VALID,917.7,VALID,0,VALID,84.0863,VALID,0,VALID,20.1513,VALID,223,VALID,0.500391,
2011-08-30, 01:14:04,VALID,917.699,VALID,0,VALID,84.01,VALID,0,VALID,20.2309,VALID,213,VALID,0.6375,
2011-08-30, 01:15:04,VALID,917.657,VALID,0,VALID,82.8894,VALID,0,VALID,20.2489,VALID,140,VALID,1.46875,
2011-08-30, 01:16:04,VALID,917.691,VALID,0,VALID,82.6836,VALID,0,VALID,20.2684,VALID,174,VALID,1.36875,
2011-08-30, 01:17:04,VALID,917.668,VALID,0,VALID,82.028,VALID,0,VALID,20.3074,VALID,176,VALID,0.446094,
2011-08-30, 01:18:04,VALID,917.669,VALID,0,VALID,81.6315,VALID,0,VALID,20.3464,VALID,176,VALID,0.988672,
2011-08-30, 01:19:04,VALID,917.694,VALID,0,VALID,81.0445,VALID,0,VALID,20.4259,VALID,185,VALID,1.22852,
2011-08-30, 01:20:04,VALID,917.672,VALID,0,VALID,81.2351,VALID,0,VALID,20.4634,VALID,190,VALID,0.865625,
2011-08-30, 01:21:04,VALID,917.691,VALID,0,VALID,81.5782,VALID,0,VALID,20.4634,VALID,189,VALID,0.685547,
2011-08-30, 01:22:04,VALID,917.656,VALID,0,VALID,81.014,VALID,0,VALID,20.4829,VALID,190,VALID,0.773047,
2011-08-30, 01:23:04,VALID,917.697,VALID,0,VALID,80.8768,VALID,0,VALID,20.5414,VALID,248,VALID,1.48594,
2011-08-30, 01:24:04,VALID,917.701,VALID,0,VALID,80.8692,VALID,0,VALID,20.5609,VALID,231,VALID,0.768359,
2011-08-30, 01:25:04,VALID,917.734,VALID,0,VALID,81.845,VALID,0,VALID,20.5414,VALID,244,VALID,0.807422,
2011-08-30, 01:26:04,VALID,917.723,VALID,0,VALID,82.1042,VALID,0,VALID,20.4829,VALID,244,VALID,0.616016,
2011-08-30, 01:27:04,VALID,917.733,VALID,0,VALID,82.3405,VALID,0,VALID,20.4439,VALID,244,VALID,0.533984,
2011-08-30, 01:28:04,VALID,917.718,VALID,0,VALID,82.6302,VALID,0,VALID,20.4049,VALID,244,VALID,0.816016,
2011-08-30, 01:29:04,VALID,917.718,VALID,0,VALID,83.1486,VALID,0,VALID,20.3659,VALID,244,VALID,0.565625,
2011-08-30, 01:30:04,VALID,917.67,VALID,0,VALID,83.7966,VALID,0,VALID,20.3269,VALID,188,VALID,0.968359,
2011-08-30, 01:31:04,VALID,917.684,VALID,0,VALID,84.2159,VALID,0,VALID,20.2098,VALID,188,VALID,0.771094,
2011-08-30, 01:32:04,VALID,917.659,VALID,0,VALID,84.2845,VALID,0,VALID,20.1513,VALID,181,VALID,1.46016,
2011-08-30, 01:33:04,VALID,917.666,VALID,0,VALID,84.5056,VALID,0,VALID,20.1123,VALID,177,VALID,1.3832,
2011-08-30, 01:34:04,VALID,917.665,VALID,0,VALID,84.5513,VALID,0,VALID,20.0928,VALID,177,VALID,1.55078,
2011-08-30, 01:35:04,VALID,917.646,VALID,0,VALID,84.9096,VALID,0,VALID,20.0944,VALID,177,VALID,1.13594,
2011-08-30, 01:36:04,VALID,917.659,VALID,0,VALID,84.5437,VALID,0,VALID,20.0733,VALID,183,VALID,1.3,
2011-08-30, 01:37:04,VALID,917.639,VALID,0,VALID,84.5132,VALID,0,VALID,20.0928,VALID,180,VALID,1.68711,
2011-08-30, 01:38:04,VALID,917.645,VALID,0,VALID,84.6047,VALID,0,VALID,20.1318,VALID,179,VALID,1.1082,
2011-08-30, 01:39:04,VALID,917.639,VALID,0,VALID,84.5284,VALID,0,VALID,20.1513,VALID,169,VALID,1.24922,
2011-08-30, 01:40:04,VALID,917.639,VALID,0,VALID,84.6885,VALID,0,VALID,20.1318,VALID,169,VALID,0.842969,
2011-08-30, 01:41:04,VALID,917.585,VALID,0,VALID,84.4141,VALID,0,VALID,20.1334,VALID,173,VALID,1.22617,
2011-08-30, 01:42:04,VALID,917.582,VALID,0,VALID,84.437,VALID,0,VALID,20.1123,VALID,187,VALID,1.60977,
2011-08-30, 01:43:04,VALID,917.597,VALID,0,VALID,84.902,VALID,0,VALID,20.0733,VALID,164,VALID,0.946484,
2011-08-30, 01:44:04,VALID,917.57,VALID,0,VALID,84.902,VALID,0,VALID,20.0733,VALID,165,VALID,1.73086,
2011-08-30, 01:45:04,VALID,917.56,VALID,0,VALID,85.1459,VALID,0,VALID,20.0538,VALID,133,VALID,0.666797,
2011-08-30, 01:46:04,VALID,917.545,VALID,0,VALID,85.4432,VALID,0,VALID,20.0553,VALID,133,VALID,0.425,
2011-08-30, 01:47:04,VALID,917.505,VALID,0,VALID,85.7787,VALID,0,VALID,19.9953,VALID,133,VALID,0.113672,
2011-08-30, 01:48:04,VALID,917.52,VALID,0,VALID,86.1141,VALID,0,VALID,19.9953,VALID,133,VALID,0.832812,
2011-08-30, 01:49:04,VALID,917.498,VALID,0,VALID,86.4877,VALID,0,VALID,19.8978,VALID,132,VALID,0.798828,
2011-08-30, 01:50:04,VALID,917.502,VALID,0,VALID,86.9527,VALID,0,VALID,19.8198,VALID,80,VALID,1.2125,
2011-08-30, 01:51:04,VALID,917.462,VALID,0,VALID,87.372,VALID,0,VALID,19.7223,VALID,76,VALID,1.25547,
2011-08-30, 01:52:04,VALID,917.494,VALID,0,VALID,87.8904,VALID,0,VALID,19.6428,VALID,76,VALID,1.02461,
2011-08-30, 01:53:04,VALID,917.445,VALID,0,VALID,88.3859,VALID,0,VALID,19.5663,VALID,76,VALID,0.902734,
2011-08-30, 01:54:04,VALID,917.408,VALID,0,VALID,88.7137,VALID,0,VALID,19.5078,VALID,84,VALID,1.36914,
2011-08-30, 01:55:04,VALID,917.396,VALID,0,VALID,88.7899,VALID,0,VALID,19.4883,VALID,91,VALID,1.38945,
2011-08-30, 01:56:04,VALID,917.375,VALID,0,VALID,88.7747,VALID,0,VALID,19.4883,VALID,118,VALID,1.97031,
2011-08-30, 01:57:04,VALID,917.362,VALID,0,VALID,88.6146,VALID,0,VALID,19.5078,VALID,110,VALID,1.26133,
2011-08-30, 01:58:04,VALID,917.304,VALID,0,VALID,88.5841,VALID,0,VALID,19.5273,VALID,113,VALID,1.3832,
2011-08-30, 01:59:04,VALID,917.288,VALID,0,VALID,88.6375,VALID,0,VALID,19.5288,VALID,119,VALID,1.32773,
2011-08-30, 02:00:04,VALID,917.253,VALID,0,VALID,88.7899,VALID,0,VALID,19.4883,VALID,129,VALID,1.21719,
2011-08-30, 02:01:04,VALID,917.218,VALID,0,VALID,88.9195,VALID,0,VALID,19.4883,VALID,126,VALID,2.23281,
2011-08-30, 02:02:04,VALID,917.189,VALID,0,VALID,88.9729,VALID,0,VALID,19.4703,VALID,134,VALID,2.02109,
2011-08-30, 02:03:04,VALID,917.189,VALID,0,VALID,88.9271,VALID,0,VALID,19.4688,VALID,138,VALID,1.57969,
2011-08-30, 02:04:04,VALID,917.176,VALID,0,VALID,88.8509,VALID,0,VALID,19.4883,VALID,129,VALID,0.928125,
2011-08-30, 02:05:04,VALID,917.169,VALID,0,VALID,88.6222,VALID,0,VALID,19.4883,VALID,131,VALID,1.37422,
2011-08-30, 02:06:04,VALID,917.144,VALID,0,VALID,88.4545,VALID,0,VALID,19.4883,VALID,96,VALID,0.915625,
2011-08-30, 02:07:04,VALID,917.151,VALID,0,VALID,88.0962,VALID,0,VALID,19.5078,VALID,113,VALID,1.16953,
2011-08-30, 02:08:04,VALID,917.115,VALID,0,VALID,88.1496,VALID,0,VALID,19.5273,VALID,111,VALID,0.883594,
2011-08-30, 02:09:04,VALID,917.083,VALID,0,VALID,88.1953,VALID,0,VALID,19.5093,VALID,126,VALID,1.03398,
2011-08-30, 02:10:04,VALID,917.074,VALID,0,VALID,88.3554,VALID,0,VALID,19.4898,VALID,126,VALID,0.907812,
2011-08-30, 02:11:04,VALID,917.086,VALID,0,VALID,88.1496,VALID,0,VALID,19.4688,VALID,126,VALID,1.28281,
2011-08-30, 02:12:04,VALID,917.075,VALID,0,VALID,88.1343,VALID,0,VALID,19.4898,VALID,126,VALID,0.299609,
2011-08-30, 02:13:04,VALID,917.115,VALID,0,VALID,88.2258,VALID,0,VALID,19.4898,VALID,126,VALID,0.505469,
2011-08-30, 02:14:04,VALID,917.089,VALID,0,VALID,88.1953,VALID,0,VALID,19.5093,VALID,126,VALID,0.236719,
2011-08-30, 02:15:04,VALID,917.096,VALID,0,VALID,87.9818,VALID,0,VALID,19.5288,VALID,143,VALID,1.52617,
2011-08-30, 02:16:04,VALID,917.095,VALID,0,VALID,87.9971,VALID,0,VALID,19.5273,VALID,168,VALID,0.942578,
2011-08-30, 02:17:04,VALID,917.101,VALID,0,VALID,87.3948,VALID,0,VALID,19.5663,VALID,160,VALID,1.38906,
2011-08-30, 02:18:04,VALID,917.063,VALID,0,VALID,86.9984,VALID,0,VALID,19.6248,VALID,178,VALID,1.84375,
2011-08-30, 02:19:04,VALID,917.088,VALID,0,VALID,87.1661,VALID,0,VALID,19.6443,VALID,173,VALID,1.26211,
2011-08-30, 02:20:04,VALID,917.041,VALID,0,VALID,86.9069,VALID,0,VALID,19.6443,VALID,185,VALID,1.26563,
2011-08-30, 02:21:04,VALID,917.039,VALID,0,VALID,86.8155,VALID,0,VALID,19.6638,VALID,157,VALID,1.16211,
2011-08-30, 02:22:04,VALID,917.018,VALID,0,VALID,86.7545,VALID,0,VALID,19.6833,VALID,156,VALID,0.862891,
2011-08-30, 02:23:04,VALID,917.004,VALID,0,VALID,86.4648,VALID,0,VALID,19.7028,VALID,182,VALID,1.15391,
2011-08-30, 02:24:04,VALID,917.006,VALID,0,VALID,86.1675,VALID,0.107441,VALID,19.7208,VALID,172,VALID,1.0957,
2011-08-30, 02:25:04,VALID,916.996,VALID,0,VALID,85.9311,VALID,0.107441,VALID,19.7598,VALID,172,VALID,0.888281,
2011-08-30, 02:26:04,VALID,916.962,VALID,0,VALID,85.9159,VALID,0,VALID,19.8198,VALID,183,VALID,1.86445,
2011-08-30, 02:27:04,VALID,916.951,VALID,0,VALID,85.6948,VALID,0,VALID,19.7988,VALID,179,VALID,1.2625,
2011-08-30, 02:28:04,VALID,916.921,VALID,0,VALID,85.6567,VALID,0,VALID,19.8183,VALID,167,VALID,0.967578,
2011-08-30, 02:29:04,VALID,916.893,VALID,0,VALID,85.7558,VALID,0,VALID,19.8393,VALID,178,VALID,1.03008,
2011-08-30, 02:30:04,VALID,916.869,VALID,0,VALID,85.5576,VALID,0.107441,VALID,19.8183,VALID,185,VALID,1.24922,
2011-08-30, 02:31:04,VALID,916.871,VALID,0,VALID,85.2755,VALID,0.107441,VALID,19.8573,VALID,187,VALID,1.35664,
2011-08-30, 02:32:04,VALID,916.83,VALID,0,VALID,85.0849,VALID,0,VALID,19.8963,VALID,184,VALID,0.855078,
2011-08-30, 02:33:04,VALID,916.85,VALID,0,VALID,84.8867,VALID,0,VALID,19.9563,VALID,190,VALID,0.930859,
2011-08-30, 02:34:04,VALID,916.832,VALID,0,VALID,84.9172,VALID,0,VALID,19.9548,VALID,188,VALID,0.332422,
2011-08-30, 02:35:04,VALID,916.823,VALID,0,VALID,84.4903,VALID,0.107441,VALID,19.9938,VALID,138,VALID,1.3125,
2011-08-30, 02:36:04,VALID,916.814,VALID,0,VALID,84.4827,VALID,0,VALID,20.0133,VALID,127,VALID,1.54219,
2011-08-30, 02:37:04,VALID,916.772,VALID,0,VALID,84.3302,VALID,0,VALID,20.0523,VALID,139,VALID,1.27695,
2011-08-30, 02:38:04,VALID,916.799,VALID,0,VALID,84.4293,VALID,0.107441,VALID,20.0523,VALID,132,VALID,0.344531,
2011-08-30, 02:39:04,VALID,916.815,VALID,0,VALID,84.4293,VALID,0,VALID,20.0733,VALID,155,VALID,1.31484,
2011-08-30, 02:40:04,VALID,916.796,VALID,0,VALID,84.2845,VALID,0,VALID,20.0538,VALID,147,VALID,1.52305,
2011-08-30, 02:41:04,VALID,916.755,VALID,0,VALID,84.2006,VALID,0,VALID,20.0523,VALID,169,VALID,0.937109,
2011-08-30, 02:42:04,VALID,916.772,VALID,0,VALID,84.3683,VALID,0,VALID,20.0733,VALID,184,VALID,0.647656,
2011-08-30, 02:43:04,VALID,916.748,VALID,0,VALID,84.3683,VALID,0,VALID,20.0733,VALID,178,VALID,0.499219,
2011-08-30, 02:44:04,VALID,916.733,VALID,0,VALID,84.4065,VALID,0,VALID,20.0733,VALID,178,VALID,0.245703,
2011-08-30, 02:45:04,VALID,916.725,VALID,0,VALID,84.3912,VALID,0,VALID,20.0733,VALID,178,VALID,0.117969,
2011-08-30, 02:46:04,VALID,916.75,VALID,0,VALID,84.5513,VALID,0,VALID,20.0733,VALID,178,VALID,0.371484,
2011-08-30, 02:47:04,VALID,916.736,VALID,0,VALID,84.5818,VALID,0,VALID,20.0538,VALID,178,VALID,0.560547,
2011-08-30, 02:48:04,VALID,916.746,VALID,0,VALID,84.9477,VALID,0,VALID,20.0538,VALID,198,VALID,0.804688,
2011-08-30, 02:49:04,VALID,916.732,VALID,0,VALID,85.1002,VALID,0,VALID,20.0148,VALID,180,VALID,1.09063,
2011-08-30, 02:50:04,VALID,916.687,VALID,0,VALID,85.2603,VALID,0.107441,VALID,20.0148,VALID,186,VALID,1.02148,
2011-08-30, 02:51:04,VALID,916.68,VALID,0,VALID,85.5195,VALID,0,VALID,19.9953,VALID,186,VALID,1.24453,
2011-08-30, 02:52:04,VALID,916.677,VALID,0,VALID,85.8625,VALID,0,VALID,19.9353,VALID,186,VALID,0.745703,
2011-08-30, 02:53:04,VALID,916.631,VALID,0,VALID,85.8854,VALID,0,VALID,19.9173,VALID,187,VALID,0.647656,
2011-08-30, 02:54:04,VALID,916.627,VALID,0,VALID,86.0684,VALID,0,VALID,19.8573,VALID,187,VALID,0.832031,
2011-08-30, 02:55:04,VALID,916.636,VALID,0,VALID,86.0379,VALID,0,VALID,19.8378,VALID,187,VALID,0.663672,
2011-08-30, 02:56:04,VALID,916.654,VALID,0,VALID,86.1827,VALID,0,VALID,19.8378,VALID,193,VALID,0.939453,
2011-08-30, 02:57:04,VALID,916.67,VALID,0,VALID,86.3123,VALID,0,VALID,19.7988,VALID,194,VALID,0.641406,
2011-08-30, 02:58:04,VALID,916.668,VALID,0,VALID,86.5182,VALID,0,VALID,19.7808,VALID,194,VALID,0.495313,
2011-08-30, 02:59:04,VALID,916.694,VALID,0,VALID,86.7087,VALID,0,VALID,19.7808,VALID,194,VALID,0.521484,
2011-08-30, 03:00:04,VALID,916.663,VALID,0,VALID,86.9832,VALID,0,VALID,19.7418,VALID,194,VALID,0.298438,
2011-08-30, 03:01:04,VALID,916.691,VALID,0,VALID,87.4025,VALID,0,VALID,19.7028,VALID,194,VALID,0.426172,
2011-08-30, 03:02:04,VALID,916.686,VALID,0,VALID,87.4406,VALID,0,VALID,19.6428,VALID,194,VALID,0.590234,
2011-08-30, 03:03:04,VALID,916.673,VALID,0,VALID,87.5092,VALID,0,VALID,19.6638,VALID,194,VALID,0.386719,
2011-08-30, 03:04:04,VALID,916.694,VALID,0,VALID,87.5778,VALID,0,VALID,19.6638,VALID,194,VALID,0.326953,
2011-08-30, 03:05:04,VALID,916.695,VALID,0,VALID,87.5397,VALID,0,VALID,19.6053,VALID,194,VALID,0.360547,
2011-08-30, 03:06:04,VALID,916.7,VALID,0,VALID,87.6845,VALID,0,VALID,19.6248,VALID,194,VALID,0,
2011-08-30, 03:07:04,VALID,916.724,VALID,0,VALID,87.9132,VALID,0,VALID,19.5663,VALID,194,VALID,0,
2011-08-30, 03:08:04,VALID,916.722,VALID,0,VALID,88.1419,VALID,0,VALID,19.5078,VALID,194,VALID,0.475391,
2011-08-30, 03:09:04,VALID,916.743,VALID,0,VALID,88.3173,VALID,0,VALID,19.4883,VALID,194,VALID,0.394141,
2011-08-30, 03:10:04,VALID,916.75,VALID,0,VALID,88.2792,VALID,0,VALID,19.4883,VALID,194,VALID,0.314063,
2011-08-30, 03:11:04,VALID,916.767,VALID,0,VALID,88.2563,VALID,0,VALID,19.4883,VALID,194,VALID,0.414844,
2011-08-30, 03:12:04,VALID,916.774,VALID,0,VALID,88.3401,VALID,0,VALID,19.5288,VALID,194,VALID,0.717969,
2011-08-30, 03:13:04,VALID,916.786,VALID,0,VALID,88.5688,VALID,0,VALID,19.5078,VALID,194,VALID,0.538672,
2011-08-30, 03:14:04,VALID,916.793,VALID,0,VALID,88.6451,VALID,0,VALID,19.4688,VALID,194,VALID,0.420312,
2011-08-30, 03:15:04,VALID,916.78,VALID,0,VALID,88.4469,VALID,0.107441,VALID,19.4493,VALID,194,VALID,0.396094,
2011-08-30, 03:16:04,VALID,916.819,VALID,0,VALID,88.5765,VALID,0,VALID,19.4688,VALID,194,VALID,0.219531,
2011-08-30, 03:17:04,VALID,916.789,VALID,0,VALID,88.3859,VALID,0,VALID,19.4883,VALID,194,VALID,0.187891,
2011-08-30, 03:18:04,VALID,916.79,VALID,0,VALID,88.3554,VALID,0,VALID,19.5078,VALID,194,VALID,0.672266,
2011-08-30, 03:19:04,VALID,916.804,VALID,0,VALID,88.3478,VALID,0,VALID,19.4883,VALID,194,VALID,0.707812,
2011-08-30, 03:20:04,VALID,916.818,VALID,0,VALID,88.4926,VALID,0,VALID,19.4493,VALID,194,VALID,0.829297,
2011-08-30, 03:21:04,VALID,916.819,VALID,0,VALID,88.5841,VALID,0,VALID,19.4298,VALID,194,VALID,0.335938,
2011-08-30, 03:22:04,VALID,916.809,VALID,0,VALID,88.6527,VALID,0,VALID,19.4493,VALID,195,VALID,0.677344,
2011-08-30, 03:23:04,VALID,916.812,VALID,0,VALID,88.7366,VALID,0,VALID,19.4298,VALID,195,VALID,0.395312,
2011-08-30, 03:24:04,VALID,916.798,VALID,0,VALID,88.7213,VALID,0,VALID,19.4688,VALID,195,VALID,0.406641,
2011-08-30, 03:25:04,VALID,916.776,VALID,0,VALID,88.7213,VALID,0,VALID,19.4493,VALID,195,VALID,0.133984,
2011-08-30, 03:26:04,VALID,916.766,VALID,0,VALID,88.9348,VALID,0,VALID,19.4298,VALID,195,VALID,0.451562,
2011-08-30, 03:27:04,VALID,916.767,VALID,0,VALID,89.0491,VALID,0,VALID,19.4103,VALID,195,VALID,0.465625,
2011-08-30, 03:28:04,VALID,916.743,VALID,0,VALID,89.1787,VALID,0,VALID,19.4103,VALID,195,VALID,0.795313,
2011-08-30, 03:29:04,VALID,916.748,VALID,0,VALID,89.2092,VALID,0,VALID,19.3923,VALID,195,VALID,1.18633,
2011-08-30, 03:30:04,VALID,916.771,VALID,0,VALID,89.255,VALID,0,VALID,19.3713,VALID,195,VALID,0.774219,
2011-08-30, 03:31:04,VALID,916.777,VALID,0,VALID,89.3769,VALID,0,VALID,19.3518,VALID,194,VALID,1.25977,
2011-08-30, 03:32:04,VALID,916.772,VALID,0,VALID,89.3846,VALID,0,VALID,19.3518,VALID,151,VALID,1.14844,
2011-08-30, 03:33:04,VALID,916.768,VALID,0,VALID,89.3083,VALID,0,VALID,19.3518,VALID,155,VALID,0.980859,
2011-08-30, 03:34:04,VALID,916.776,VALID,0,VALID,89.2473,VALID,0,VALID,19.3518,VALID,111,VALID,1.17813,
2011-08-30, 03:35:04,VALID,916.767,VALID,0,VALID,89.4532,VALID,0,VALID,19.3128,VALID,74,VALID,1.42656,
2011-08-30, 03:36:04,VALID,916.76,VALID,0,VALID,89.72,VALID,0,VALID,19.2543,VALID,74,VALID,1.33594,
2011-08-30, 03:37:04,VALID,916.749,VALID,0,VALID,90.0478,VALID,0,VALID,19.1178,VALID,74,VALID,1.2832,
2011-08-30, 03:38:04,VALID,916.767,VALID,0,VALID,90.4747,VALID,0,VALID,19.0023,VALID,74,VALID,1.14375,
2011-08-30, 03:39:04,VALID,916.758,VALID,0,VALID,91.0541,VALID,0,VALID,18.9243,VALID,74,VALID,1.38086,
2011-08-30, 03:40:04,VALID,916.733,VALID,0,VALID,91.359,VALID,0,VALID,18.8853,VALID,74,VALID,1.02188,
2011-08-30, 03:41:04,VALID,916.74,VALID,0,VALID,91.5267,VALID,0,VALID,18.8268,VALID,74,VALID,0.970312,
2011-08-30, 03:42:04,VALID,916.737,VALID,0,VALID,91.8317,VALID,0,VALID,18.7683,VALID,74,VALID,1.09219,
2011-08-30, 03:43:04,VALID,916.74,VALID,0,VALID,92.0909,VALID,0,VALID,18.7279,VALID,74,VALID,1.15547,
2011-08-30, 03:44:04,VALID,916.773,VALID,0,VALID,92.411,VALID,0.107441,VALID,18.6485,VALID,74,VALID,1.37109,